Weather in Ocho Rios

Jamaica     18°23′53″N   77°06′08″W
temp.,
°C
wind,
m/s
gust,
m/s
humid.,
%
clouds,
%
prec.,
mm/h
press.,
hPa
HPBL,
m
28 september, tue
tue2801:00+29ese44723 3.6 1012615
04:00+29e347111 0.1 1011883
07:00+28ese457613 0.5 1013759
10:00+29e56698 0.2 1014995
13:00+29ene66680 0.2 1012910
16:00+29e55710 0.1 1010896
19:00+29ese44700 0.3 1011673
22:00+29ese33720 0.0 1012452
29 september, wed
wed2901:00+28se33734 0.1 1011506
04:00+28se22740 0.0 1011510
07:00+28sse22750 0.0 1012484
10:00+28ene22740 0.0 1013515
13:00+28ne44710 0.0 1011496
16:00+29e44680 0.0 1010688
19:00+29ese22680 0.0 1011641
22:00+28sse22730 0.0 1013385
30 september, thu
thu3001:00+27ese11750 0.2 1012280
04:00+27sse22753 0.1 1010449
07:00+27se33762 0.1 1012564
10:00+28e23731 0.0 1013535
13:00+28ne557155 0.0 1012561
16:00+29ene557445 0.0 1010722
19:00+29e34705 0.0 1012924
22:00+28ese34715 1.1 1013530
1 october, fri
fri101:00+28ese34725 1.1 1012754
04:00+28ese237411 0.4 1011672
07:00+27se457812 0.6 1012636
10:00+29e66745 0.1 1013914
13:00+29ene66735 0.2 1012757
16:00+29ene777518 0.1 1011885
19:00+28e347448 1.6 1012565
22:00+28ese457366 0.8 1013637
2 october, sat
sat201:00+28se567596 0.9 1012615
04:00+28ese577345 0.1 1011950
07:00+28ese56715 0.3 1013867
10:00+29e56695 0.0 1014859
13:00+29e666829 0.2 1012776
16:00+29e777199 0.2 1011870
19:00+29e9970100 0.9 1012898
22:00+29e7872100 2.6 1013826